Wind_Speed
13 13 13 14 16 18 17 16 16 17 17 16 15 14 15 15 16 17 18 17 16 16 16 16 16 16 16 18 18 19 19 19 20 20 20 20 21 20 20 20 21 22 23 24 25 26 25 25 25 25 26 25 25 26 26 26 27 28 29 30 31 31 31 29 27 27 29 29 29 27 26 26 27 29 29 27 26 28 28 27 26 26 26 27 28
14 14 14 15 17 18 16 15 16 18 18 18 16 16 18 18 18 19 19 19 19 19 19 18 18 18 17 18 19 20 20 20 20 20 20 21 21 21 20 20 20 22 23 24 25 26 25 25 25 26 26 26 26 26 26 26 27 28 29 30 31 32 33 31 29 28 29 30 31 30 30 29 29 30 31 30 29 29 29 29 29 28 27 26 27
14 14 14 16 17 17 16 15 16 18 19 19 18 19 20 20 19 20 19 19 19 20 20 20 20 20 19 19 20 20 20 20 21 21 21 21 22 22 22 21 21 21 22 24 24 25 24 24 25 26 26 26 26 26 26 27 28 29 30 30 31 32 33 32 30 29 30 31 32 33 33 32 32 32 31 32 32 30 29 30 30 28 26 25 26
15 16 17 18 17 16 16 17 18 20 21 20 20 21 22 21 20 20 19 19 20 20 20 19 19 20 20 20 20 20 20 21 21 21 22 22 22 22 23 22 22 22 22 24 24 24 24 24 25 26 26 26 26 27 28 29 30 30 30 31 31 32 33 32 30 30 31 30 31 33 33 34 35 35 33 32 33 33 32 31 31 28 25 26 27
17 19 19 19 17 16 16 17 19 21 21 19 20 22 22 21 21 20 20 20 21 20 20 20 19 19 21 21 20 20 21 21 21 21 22 23 23 23 23 23 23 23 23 24 25 24 24 24 25 26 26 26 27 28 29 30 30 30 31 32 32 32 33 32 30 30 30 29 29 31 33 34 35 36 35 33 32 33 33 32 31 31 31 31 30
19 20 20 20 18 17 16 16 18 21 20 18 20 23 23 23 23 22 20 19 20 20 20 21 21 20 21 22 22 21 21 21 21 22 23 23 24 24 23 23 24 24 24 25 25 25 25 25 26 26 26 26 27 28 29 29 30 30 30 31 31 31 32 31 30 29 29 29 29 30 32 34 35 35 37 37 34 34 34 33 31 33 35 36 34
21 20 19 20 19 17 16 16 18 20 19 19 20 21 22 24 24 21 19 19 20 21 21 21 21 21 21 22 23 23 22 22 22 23 24 25 25 24 24 24 25 25 25 26 27 26 26 26 28 28 27 27 27 28 28 28 29 29 30 30 31 31 31 30 30 30 30 30 30 30 32 35 35 35 37 39 37 36 36 34 33 34 36 37 37
20 19 18 20 21 20 18 18 19 19 20 21 21 20 22 24 22 20 20 21 21 21 21 20 21 21 22 23 23 23 23 23 24 24 25 26 26 25 25 26 27 26 25 26 28 28 27 27 28 28 28 27 28 30 30 29 29 30 30 31 31 31 31 31 31 31 32 32 31 31 32 34 34 35 37 39 39 39 38 36 35 35 36 36 37
17 17 18 19 21 21 20 19 18 18 20 22 21 20 21 22 22 21 22 22 22 21 20 20 22 23 24 24 24 24 24 25 25 25 26 26 26 26 26 27 27 26 26 27 28 29 29 28 28 28 27 28 29 31 31 30 30 31 31 32 32 32 32 32 32 32 32 32 31 31 32 32 33 34 37 39 40 41 40 38 37 36 36 36 36
15 16 17 17 18 19 19 18 17 18 19 18 17 17 18 19 20 21 22 22 22 22 21 21 22 24 25 25 24 24 25 26 26 26 26 27 27 28 28 28 27 26 27 27 28 29 30 30 30 28 28 29 29 30 30 30 31 31 32 32 33 33 33 32 32 33 33 32 32 32 32 32 34 36 37 39 41 42 42 40 39 39 38 36 35
13 14 14 15 15 16 17 17 16 16 17 15 14 15 15 17 18 19 20 21 22 23 23 23 23 24 25 26 27 26 26 25 25 26 27 28 28 29 30 29 28 26 26 28 28 29 30 31 31 31 30 30 29 29 29 29 30 31 32 33 33 33 33 32 32 33 33 33 33 34 34 34 35 37 39 40 40 40 41 41 41 41 40 38 37
14 14 14 14 14 15 16 16 15 14 15 14 13 12 12 14 16 17 18 19 21 22 22 22 22 22 23 25 26 26 25 24 25 26 27 28 28 28 29 29 28 27 27 28 28 28 29 30 31 32 31 30 29 30 30 30 31 31 32 33 34 34 33 34 34 33 34 34 33 34 35 36 37 39 42 42 39 37 39 42 43 43 43 42 41
14 15 15 14 14 14 14 15 14 13 14 14 13 11 10 10 11 11 13 14 15 17 17 18 18 17 18 18 20 21 21 23 24 24 24 23 24 25 26 27 28 28 28 28 27 27 28 28 30 31 32 32 31 30 31 32 33 32 32 33 34 34 33 34 35 35 35 35 34 34 36 37 38 40 42 40 37 36 38 42 45 44 42 41 41
14 14 14 14 14 14 14 13 13 13 13 12 12 10 8 7 7 7 9 10 11 12 14 15 15 15 15 15 15 15 15 17 19 19 18 18 18 19 21 22 23 24 25 26 26 25 25 24 26 28 30 32 32 31 31 32 33 33 32 32 34 35 33 33 35 36 36 36 35 35 37 37 37 38 39 37 34 34 35 37 40 40 38 37 37
13 13 13 13 13 13 13 13 12 12 11 10 10 10 9 8 8 8 9 10 10 11 12 13 13 13 13 12 13 13 11 11 13 14 14 14 15 16 17 19 20 21 21 22 22 22 23 22 22 23 25 27 28 27 27 28 28 29 29 29 30 32 32 33 34 35 34 33 33 33 35 36 35 35 35 34 33 33 32 31 32 34 34 34 32
12 12 12 12 12 12 13 12 11 10 9 8 9 10 10 10 9 10 11 11 12 12 11 12 12 12 11 11 12 12 10 10 12 14 14 14 15 16 17 18 20 21 21 20 19 19 21 22 22 22 21 21 22 23 24 25 25 25 26 26 25 26 27 28 28 28 28 28 28 28 28 30 31 31 31 32 31 31 31 29 29 32 33 33 32
11 11 11 12 11 11 11 11 10 9 9 9 9 10 10 10 10 11 11 12 12 12 12 13 13 12 11 11 12 12 10 10 12 14 14 15 15 15 16 18 20 20 20 19 18 17 18 20 21 21 20 20 20 21 21 22 22 23 24 24 23 22 23 24 25 25 25 25 26 26 26 27 29 29 30 32 32 32 32 30 30 31 31 30 31
11 11 11 11 11 10 10 10 10 9 9 9 9 9 9 10 9 10 11 11 11 12 12 12 13 12 12 11 12 11 10 10 11 12 13 13 14 15 16 17 19 19 19 19 18 17 17 18 18 18 19 19 20 20 20 20 20 20 20 21 21 21 22 23 23 24 24 24 25 26 27 28 29 29 30 31 32 33 34 33 32 31 29 28 27
11 11 10 10 10 10 10 9 9 10 10 10 10 10 10 10 10 10 10 11 12 12 12 12 12 12 12 12 12 11 11 12 12 12 13 14 15 17 18 19 20 20 20 21 20 19 18 18 19 19 18 19 20 20 20 19 19 20 20 20 21 22 24 24 24 25 25 25 26 26 28 28 29 30 31 31 31 32 33 34 34 33 31 29 28
9 9 9 10 10 10 10 10 10 11 12 12 12 12 11 11 10 10 11 11 12 14 15 14 14 13 12 12 12 13 14 14 14 14 15 16 18 20 20 21 22 23 23 23 23 22 20 20 22 21 19 19 20 21 20 19 20 21 21 22 23 24 25 26 27 26 26 27 27 27 28 29 30 30 31 31 31 31 32 33 33 33 32 31 30
8 8 8 9 9 10 11 11 12 12 13 13 13 13 12 12 12 12 13 13 14 15 16 17 18 17 16 15 15 16 17 17 17 17 18 19 20 21 22 23 24 25 25 25 25 24 22 23 24 23 21 21 21 21 21 21 21 22 22 23 24 24 25 26 27 27 27 27 28 28 28 29 29 30 31 32 32 32 32 33 33 33 33 32 31
7 7 7 7 8 9 10 10 11 12 12 12 13 13 13 13 13 14 14 14 15 16 17 18 19 20 20 20 19 19 20 20 20 21 21 22 23 23 24 25 26 26 26 26 26 25 24 23 24 24 24 23 23 23 23 23 23 23 24 24 25 25 25 26 27 27 28 28 28 28 29 29 30 31 31 32 33 33 33 34 34 34 34 33 33
7 7 7 7 7 8 9 9 10 10 11 11 12 12 12 12 13 13 13 14 15 15 16 17 18 19 20 21 21 21 23 23 22 22 23 24 24 25 25 25 26 27 27 27 27 27 26 25 25 26 26 25 25 25 25 25 25 26 26 27 27 27 27 27 28 28 29 29 29 29 30 30 31 32 32 33 33 34 34 35 35 35 35 34 34
8 8 8 8 9 9 10 10 11 11 11 11 11 12 12 12 12 13 14 14 15 16 16 17 17 18 19 19 19 20 21 22 22 22 23 23 23 24 25 26 26 26 27 27 28 28 28 28 28 28 28 28 28 28 27 28 28 28 29 29 29 29 30 30 30 30 30 30 31 31 31 31 31 32 32 33 34 34 35 35 36 36 36 35 35
10 10 11 11 12 12 12 12 12 12 12 12 12 12 12 11 12 12 13 14 15 16 17 18 18 18 19 19 19 19 19 20 20 20 21 21 22 23 24 25 25 26 26 27 28 29 30 30 31 31 31 31 31 30 30 31 31 31 31 31 31 32 32 31 31 32 32 32 32 32 32 32 32 32 32 33 34 35 35 36 37 37 37 37 36
11 12 12 13 14 15 15 15 14 14 13 13 13 13 13 12 12 13 13 14 16 17 18 19 19 20 19 20 20 19 19 19 21 21 21 22 22 23 24 25 26 26 27 27 28 29 30 31 31 32 33 33 33 33 33 34 34 33 32 32 33 33 33 33 32 33 34 34 33 33 33 34 34 34 34 34 35 35 36 37 37 38 38 38 38
13 14 15 15 15 15 15 16 16 15 15 15 15 15 15 15 14 15 15 15 16 18 18 19 20 20 20 20 20 20 20 20 21 22 22 23 23 24 25 25 26 26 27 27 27 28 29 29 30 31 32 32 33 34 34 35 35 34 34 34 34 34 35 35 34 34 36 37 36 36 36 36 36 36 36 37 37 37 37 38 38 38 39 39 39
16 17 18 18 18 17 17 17 17 16 15 15 15 16 17 17 17 18 18 18 18 19 19 20 20 20 20 21 22 21 21 22 22 22 23 23 23 24 24 25 26 26 27 27 27 28 28 29 30 30 31 31 32 32 33 34 34 33 34 35 35 35 36 35 34 35 39 40 38 38 38 39 39 40 40 40 40 40 39 39 39 40 40 40 40
17 18 19 20 21 21 21 21 20 18 17 17 17 17 18 19 19 20 21 21 22 22 21 22 22 22 22 23 24 23 23 24 24 24 25 25 25 25 25 25 26 26 27 28 29 29 30 30 31 31 32 32 33 33 33 33 33 32 33 34 35 35 35 34 33 35 39 40 39 39 39 40 40 41 42 42 42 42 42 41 41 41 41 41 41
19 20 21 22 23 23 23 24 24 23 21 21 21 21 20 20 20 21 22 23 24 24 24 25 25 25 25 25 26 25 25 25 26 26 27 27 27 27 27 27 27 28 28 29 30 31 31 31 32 32 32 33 33 34 34 34 34 33 34 35 36 36 35 33 33 35 37 38 39 39 39 39 39 40 41 41 41 42 41 41 41 41 42 43 42
21 22 23 24 25 26 25 25 26 26 25 24 24 24 24 23 22 23 24 25 26 27 27 27 27 27 27 27 28 28 27 27 27 27 28 29 29 29 28 28 29 29 30 31 31 32 32 32 32 32 33 33 33 34 35 35 35 35 35 36 38 38 37 34 35 37 37 37 38 38 38 38 38 39 39 39 40 40 41 40 40 41 42 43 44
23 25 26 27 28 29 30 30 29 28 27 26 25 25 25 24 24 24 26 27 28 29 29 29 29 29 29 29 30 29 29 29 29 29 29 30 30 30 30 30 30 31 31 32 33 33 33 33 33 33 33 33 33 34 34 35 35 35 36 37 38 39 38 36 36 37 38 38 38 38 38 38 38 38 39 39 39 40 41 41 41 42 43 43 44
25 26 27 28 29 30 32 34 34 32 29 28 28 27 26 24 24 24 26 27 28 28 29 29 30 31 31 31 31 30 30 30 30 30 30 30 31 31 31 30 30 31 31 31 32 33 33 33 34 34 34 33 33 34 34 34 35 35 36 36 37 38 39 38 37 37 38 39 39 39 39 39 39 39 40 40 39 40 41 42 42 42 42 43 43
26 26 28 29 30 31 32 34 36 34 31 29 29 28 26 24 24 25 26 27 27 27 29 30 31 31 32 31 31 31 31 31 31 31 31 31 30 30 30 29 29 30 30 31 31 32 32 33 34 34 34 33 33 33 33 34 34 34 34 35 35 36 37 36 36 36 37 38 39 39 39 39 40 40 40 40 40 40 41 42 42 42 42 42 42
27 27 28 29 30 31 32 33 34 33 31 30 30 29 27 25 26 28 30 30 29 29 30 31 31 32 32 31 31 31 31 31 31 31 31 31 31 31 31 30 29 30 31 31 31 32 32 33 33 33 32 31 31 31 32 33 33 33 33 33 34 35 36 36 35 34 35 36 37 38 38 38 39 39 39 40 40 39 39 40 41 41 42 41 41
28 28 28 29 29 29 29 28 28 27 28 29 30 30 28 28 30 32 33 33 32 31 31 32 32 32 32 31 32 32 31 31 31 32 32 33 33 33 33 32 31 31 30 31 32 32 33 33 33 32 32 32 31 31 31 31 31 31 31 32 33 33 34 35 35 34 33 34 35 36 37 37 37 38 38 38 39 38 38 38 38 39 40 40 40
29 28 28 28 28 27 26 24 23 24 25 27 28 29 29 31 33 34 34 34 33 32 32 32 32 32 32 32 33 33 33 32 33 33 34 34 34 34 34 33 33 32 31 31 32 32 32 33 32 32 32 33 33 32 32 32 32 32 32 33 33 33 32 32 33 33 33 33 33 33 34 34 35 35 36 36 36 36 36 35 35 35 37 39 39
29 28 28 28 27 26 26 25 24 24 25 27 28 29 31 32 33 33 33 34 33 32 32 32 32 32 33 33 34 34 34 33 33 34 33 33 34 34 34 33 33 31 31 31 32 32 32 32 32 32 32 32 32 33 33 33 33 33 33 33 33 33 32 32 32 32 32 33 34 33 33 32 32 33 33 33 33 34 35 36 36 36 37 38 38
29 28 27 27 27 27 28 28 28 28 28 29 30 31 32 32 33 33 33 34 34 34 33 33 33 33 33 33 34 34 34 33 33 33 33 33 33 33 33 32 32 31 31 31 32 32 32 32 32 32 33 33 33 33 33 33 33 33 34 34 34 35 35 35 35 34 33 34 35 36 36 35 34 33 34 35 35 36 37 38 38 38 38 38 38
29 28 27 27 28 29 29 30 30 30 30 31 31 32 33 33 33 34 34 34 34 34 34 33 33 33 34 34 34 34 34 33 33 33 33 32 32 32 31 31 32 32 32 32 33 33 33 33 33 34 35 35 36 36 36 36 36 36 37 37 38 38 39 39 39 39 38 37 37 37 37 38 37 37 38 38 38 38 39 38 39 39 39 38 39
30 29 28 28 29 29 30 31 31 31 32 32 32 33 34 34 34 34 34 34 34 34 33 33 33 34 35 35 34 34 33 32 32 32 32 32 31 31 31 32 32 33 33 34 35 35 34 35 35 36 37 37 38 38 39 40 40 40 40 40 41 41 42 42 41 42 42 41 41 40 40 40 40 40 41 41 40 39 39 39 39 39 39 39 40
32 29 29 29 30 30 31 32 32 33 33 33 33 33 34 34 34 34 33 33 33 33 33 33 33 33 34 34 34 33 32 32 32 32 32 32 33 33 33 33 34 34 35 35 36 37 37 37 38 39 39 40 40 41 41 42 42 42 42 42 43 43 43 43 43 43 43 43 43 43 43 43 42 41 42 43 43 42 41 41 40 40 40 40 40
32 30 29 30 31 32 33 34 34 34 34 33 33 34 34 34 33 33 32 32 33 33 34 34 33 33 32 32 33 33 33 33 33 33 34 34 34 35 35 36 37 37 37 37 38 39 40 40 41 41 41 42 42 42 43 43 44 44 44 44 44 44 44 44 44 44 44 44 44 44 45 45 45 44 43 43 43 43 43 42 42 41 41 40 40
33 31 31 32 33 34 34 34 35 35 34 34 34 34 33 33 32 32 32 32 32 33 33 33 33 33 32 32 32 33 34 35 35 35 36 36 36 37 38 39 39 40 40 40 40 41 41 42 42 42 43 43 44 44 44 44 45 45 45 45 46 45 45 45 45 45 45 45 45 45 45 45 46 46 45 43 43 44 44 43 43 43 42 42 41
32 32 33 33 33 33 33 33 33 33 33 33 33 32 33 33 33 32 32 32 32 32 33 33 33 33 33 33 34 34 35 36 37 37 37 37 38 39 40 41 41 42 42 42 43 43 43 43 44 44 45 45 46 46 46 46 46 46 46 46 46 46 46 46 46 46 46 46 45 46 46 46 46 46 46 45 44 44 44 44 44 44 43 42 41
31 32 32 31 31 31 31 31 32 32 32 32 32 31 32 32 32 32 32 32 32 33 33 33 34 35 35 35 36 36 37 38 38 39 39 40 40 41 42 43 43 44 44 44 45 45 45 46 46 46 46 47 48 48 48 48 48 48 48 48 47 47 47 47 47 47 47 47 47 47 47 47 47 47 47 46 46 45 46 45 45 44 44 43 43
31 31 30 29 29 30 31 31 31 31 31 31 31 31 31 31 31 31 31 32 33 34 35 35 36 36 37 37 38 39 40 40 41 41 42 42 43 43 44 44 45 46 47 47 47 47 47 48 49 48 48 49 50 50 49 49 50 50 50 50 49 49 49 49 48 48 48 48 48 48 48 48 48 48 48 48 48 48 48 47 47 46 46 45 44
28 29 30 30 29 29 29 29 29 29 30 30 29 30 31 31 32 32 32 33 33 34 35 37 38 38 39 40 41 42 43 44 44 45 46 46 46 47 48 48 48 49 49 49 49 49 49 50 51 51 51 51 52 52 51 52 52 52 52 52 51 51 51 51 50 50 50 49 49 49 49 49 49 49 48 48 48 48 48 48 48 47 46 45 45
27 28 29 29 29 28 28 28 28 28 29 29 29 30 31 32 33 33 35 36 36 37 38 39 40 41 42 43 44 45 46 47 48 49 50 50 50 50 51 51 52 52 52 52 53 53 53 53 54 54 53 54 54 55 55 55 55 54 54 54 53 53 53 52 52 51 51 51 50 50 50 49 49 49 49 48 48 48 48 47 47 47 47 47 46
27 28 28 28 28 27 27 27 28 29 29 30 31 31 33 34 35 36 37 38 39 40 41 42 43 44 45 46 47 47 49 50 51 52 52 52 52 53 54 54 54 55 55 55 56 56 57 57 57 57 56 56 57 58 57 57 56 55 55 54 53 52 52 51 51 50 50 49 49 48 48 48 48 48 48 48 48 48 48 48 47 47 48 48 48
27 27 28 28 27 27 28 28 29 30 31 32 33 34 36 37 38 39 40 41 42 43 44 45 46 47 48 49 49 50 50 51 52 53 53 53 54 55 56 57 57 58 59 59 60 60 61 61 61 61 59 59 59 58 57 55 55 54 52 51 50 49 47 46 46 45 45 44 44 44 44 45 45 46 47 47 47 48 48 48 48 48 48 48 48
Wind_Direction
256 256 254 254 255 257 259 263 267 269 269 268 270 269 267 265 261 256 255 257 259 259 258 259 259 260 261 258 255 254 253 253 255 255 255 255 255 255 256 256 256 253 252 252 251 251 250 250 251 254 255 256 256 258 261 264 266 269 271 272 272 272 272 272 271 272 275 277 279 280 281 282 285 287 289 290 290 291 291 290 288 287 288 292 295
256 256 255 255 255 257 260 264 266 268 269 268 268 266 263 261 259 257 256 256 258 260 261 261 258 256 257 257 255 255 256 256 256 257 257 256 255 255 255 256 256 254 253 252 252 253 252 252 253 254 255 254 254 255 258 261 264 266 268 269 271 272 273 274 275 275 277 279 281 282 283 285 285 287 289 292 293 293 294 294 291 286 284 286 290
266 265 261 257 256 258 261 262 263 264 266 266 263 259 257 257 258 260 260 258 257 258 259 260 258 255 253 254 255 255 256 257 257 258 259 259 258 256 255 254 255 255 254 252 251 252 253 253 253 254 254 254 253 254 256 258 261 262 264 266 268 270 273 275 277 278 278 279 281 282 283 286 287 288 289 290 291 290 289 290 289 284 282 284 287
270 268 262 256 253 255 257 258 258 258 260 262 261 261 260 260 260 259 258 258 259 258 260 262 261 258 255 253 254 254 255 257 258 260 261 261 261 259 258 256 255 255 255 253 252 251 250 251 252 254 255 255 254 255 256 257 259 261 263 265 267 269 272 274 276 277 278 279 281 283 284 285 287 287 287 286 287 287 287 288 288 284 283 288 289
271 268 265 261 255 253 253 254 256 258 259 262 265 268 268 266 265 262 258 260 263 263 265 264 261 262 261 255 253 254 254 256 258 260 261 261 262 262 262 261 258 257 256 256 255 254 252 251 251 252 254 255 255 255 256 257 259 260 262 264 267 269 272 274 275 276 276 278 280 282 282 282 283 284 285 284 283 284 285 285 286 285 284 288 291
268 264 263 264 261 257 255 254 259 264 266 268 272 274 275 272 269 264 261 262 263 261 261 260 258 261 261 255 252 252 254 256 256 256 258 259 259 260 260 260 260 258 257 257 257 257 257 257 255 254 255 256 256 257 258 258 260 262 263 265 267 269 271 273 274 274 274 274 275 277 279 279 279 280 282 282 282 282 281 281 282 283 282 285 289
258 258 263 272 276 277 279 280 281 280 278 279 280 278 277 275 268 262 264 265 262 259 258 258 258 258 256 253 251 250 251 254 254 254 255 255 256 256 256 256 256 256 256 257 256 255 256 257 258 257 258 258 258 259 259 259 260 263 265 267 268 268 269 270 271 272 273 272 273 274 276 278 280 282 282 283 283 282 281 280 280 280 281 283 286
262 272 280 286 286 288 296 301 296 287 284 286 283 274 270 270 264 260 265 266 261 259 260 261 261 259 257 256 253 250 249 250 252 252 252 252 254 255 254 253 252 253 254 256 257 255 253 255 258 258 257 259 260 259 259 260 262 264 265 266 267 267 268 269 269 271 272 273 274 275 276 278 280 281 282 283 284 283 281 280 280 280 283 285 286
290 297 294 291 289 289 295 299 296 291 293 294 286 273 267 266 262 261 264 265 263 263 263 262 262 261 259 259 257 254 250 247 249 251 252 253 254 255 257 256 255 254 254 256 258 256 253 254 257 258 256 258 260 260 261 262 263 264 265 267 268 268 268 269 270 272 273 274 275 276 276 277 278 278 279 280 282 282 283 283 283 284 286 287 289
306 302 294 292 294 296 297 302 303 301 302 303 292 277 267 263 260 259 261 264 264 263 263 262 261 260 259 259 258 256 251 247 248 252 253 254 255 257 258 259 259 257 255 256 258 258 256 256 258 259 258 259 260 261 263 264 265 265 266 268 269 270 271 272 273 273 273 274 275 275 275 276 276 277 278 279 282 284 286 287 289 289 287 287 288
299 299 298 295 297 299 302 306 307 303 302 303 294 279 268 260 257 257 259 262 262 262 262 262 260 258 258 257 256 254 252 250 250 253 256 259 260 260 260 259 259 258 256 255 257 258 259 257 257 257 258 261 263 261 263 267 268 268 269 270 271 271 271 271 272 272 273 274 274 275 276 276 276 278 278 278 281 285 289 290 290 288 285 285 284
301 304 305 302 300 302 304 305 306 304 302 301 296 286 276 266 261 260 261 263 264 265 264 262 260 259 259 258 257 256 255 254 255 257 260 263 264 263 262 260 258 257 255 254 256 258 259 258 259 261 262 265 267 264 264 267 269 269 271 273 273 272 273 274 274 274 274 275 275 276 278 278 278 279 279 279 282 285 287 288 286 285 285 284 283
304 304 303 304 302 301 303 302 302 302 300 300 301 298 287 272 266 267 269 270 270 269 266 262 259 259 262 263 261 261 260 256 256 256 259 262 264 263 261 260 259 258 258 258 259 262 266 267 268 269 268 267 267 266 266 267 267 266 267 270 272 272 275 276 276 275 274 274 276 277 277 278 278 278 279 283 287 287 284 283 282 284 286 286 286
303 303 303 304 302 301 300 297 297 298 298 299 300 300 296 285 280 281 280 277 271 268 267 265 261 262 267 268 267 266 264 259 257 256 253 254 258 260 261 261 260 260 261 263 265 270 274 277 276 273 269 266 265 266 269 271 270 266 265 269 271 272 274 276 276 276 275 276 277 277 276 278 279 280 282 287 289 287 283 282 282 284 288 291 292
300 302 304 303 301 300 297 292 291 292 293 292 289 288 288 282 277 274 272 271 267 265 267 268 267 268 270 274 274 272 270 269 267 263 256 251 253 260 264 268 268 267 266 268 273 277 278 280 279 275 271 270 268 268 270 274 275 272 270 270 271 272 274 276 277 279 280 281 281 280 279 279 282 285 288 289 290 289 287 286 286 287 291 296 300
304 306 306 302 299 297 295 293 290 287 286 283 276 274 274 271 269 267 265 266 266 266 267 270 273 274 274 276 278 275 274 274 272 270 267 262 261 264 270 275 276 275 274 275 278 280 280 282 284 281 279 278 277 276 277 278 279 278 276 275 276 277 279 280 282 285 289 290 288 287 287 286 287 291 292 291 292 292 292 294 296 296 297 303 306
315 313 309 305 302 299 297 298 299 293 287 282 275 273 273 272 271 267 264 266 267 268 270 273 277 280 279 279 280 279 280 278 276 276 274 271 271 273 277 280 279 278 280 280 280 282 283 286 289 291 292 292 289 289 289 287 283 281 280 281 284 286 285 286 288 290 292 293 293 293 292 292 292 293 292 292 294 296 298 299 300 300 302 306 307
325 323 320 314 308 306 302 301 301 297 291 287 281 279 279 278 277 275 274 276 276 275 274 276 280 283 282 279 280 280 281 279 278 279 279 277 278 278 278 279 279 280 282 282 283 285 286 286 288 290 292 293 292 292 292 289 284 283 284 285 286 285 283 283 285 286 287 289 290 290 291 291 291 292 291 292 294 296 297 298 297 298 299 299 298
326 324 323 318 313 311 305 299 296 292 289 288 286 282 280 279 280 280 280 282 282 281 277 275 278 282 283 282 282 281 279 278 277 279 281 282 281 279 279 280 281 283 285 286 287 288 287 285 284 285 286 287 287 288 287 286 285 285 285 284 282 280 280 281 282 283 285 286 285 285 285 286 287 287 288 289 290 291 292 294 295 296 296 295 295
322 317 317 314 311 310 304 299 294 290 287 287 285 282 279 277 277 278 278 279 280 282 283 282 282 284 284 282 282 282 282 282 283 285 285 284 283 284 285 286 286 287 288 288 288 289 288 286 285 285 286 286 286 286 287 287 285 284 283 282 281 282 283 284 285 285 285 285 285 284 284 284 285 286 287 288 289 290 291 292 293 295 296 297 297
318 314 311 307 304 302 299 295 290 287 285 284 282 281 278 277 277 278 277 278 279 281 284 286 289 291 292 289 288 289 288 288 289 288 286 285 284 285 286 287 287 288 288 288 288 289 289 288 288 288 287 286 284 284 284 283 282 280 280 280 279 279 280 281 281 282 281 281 282 282 283 285 286 287 288 288 289 289 289 290 292 293 295 296 296
322 320 318 314 310 307 304 301 298 295 293 290 288 286 284 282 281 279 277 277 277 279 281 284 288 292 294 295 295 294 292 290 290 289 287 286 286 286 286 286 287 287 288 289 290 290 290 290 289 289 288 287 285 283 282 281 280 279 278 277 276 275 275 275 276 277 278 279 280 281 282 284 285 285 286 287 288 290 291 292 293 293 294 296 296
336 332 330 326 322 319 319 318 315 310 304 300 297 294 292 290 287 285 284 284 283 284 286 287 290 292 294 295 295 293 291 289 288 286 286 286 285 285 285 285 286 287 289 290 290 291 290 289 288 288 288 287 286 285 284 283 281 280 279 279 279 278 278 277 277 278 280 281 281 282 283 284 285 286 287 289 290 291 293 294 294 295 295 296 296
332 328 324 320 316 316 321 324 321 317 316 314 312 307 302 298 297 296 295 294 294 294 293 293 294 294 295 296 295 293 291 289 287 284 283 283 282 283 283 283 284 285 287 288 289 289 289 288 287 287 286 286 286 286 286 285 284 284 284 284 284 283 282 281 281 280 281 281 282 283 284 284 286 287 289 290 291 292 293 293 294 295 295 295 295
327 328 327 324 321 320 321 320 316 317 319 320 319 317 313 309 308 307 303 302 303 303 303 302 302 303 303 303 302 300 298 296 294 292 289 288 288 288 288 289 289 290 289 289 289 289 289 289 288 288 287 287 287 288 288 287 286 287 287 287 286 285 283 283 282 281 280 280 281 282 284 285 286 287 289 290 290 291 292 292 292 293 293 293 293
324 326 328 330 331 328 325 322 321 321 319 315 314 318 319 317 315 313 310 310 310 309 307 305 304 305 306 305 304 304 304 302 301 300 300 299 298 297 297 297 297 297 295 294 293 292 291 290 290 289 289 289 289 289 288 287 287 287 288 287 285 284 284 283 282 282 282 282 282 283 284 285 285 286 287 288 288 289 290 290 291 290 290 290 290
317 317 318 321 322 320 318 318 319 318 316 314 314 316 315 313 310 310 311 312 311 309 307 306 305 304 303 300 299 300 300 300 299 300 300 300 300 300 299 299 299 298 297 296 295 294 294 293 293 292 292 291 290 288 287 287 286 286 286 285 285 284 284 284 284 285 284 283 283 284 284 284 285 285 285 286 286 287 287 288 288 288 288 288 288
315 313 312 310 308 307 307 307 307 305 304 306 307 306 305 305 305 306 307 308 307 307 308 308 308 308 306 300 297 296 296 295 294 295 296 296 297 298 298 298 297 297 297 296 295 294 293 293 293 292 292 291 290 288 288 287 287 286 285 284 284 283 283 283 284 283 282 281 282 282 282 283 283 284 284 285 285 285 285 286 286 286 286 286 286
313 312 310 307 304 303 302 301 300 297 294 293 292 292 293 296 298 299 300 302 302 304 307 308 309 310 309 304 301 299 295 292 291 291 291 292 294 295 296 296 295 294 294 293 293 292 291 290 290 289 289 289 288 288 288 288 287 286 285 284 283 283 283 284 282 280 279 281 282 282 282 282 282 283 284 284 284 284 284 285 286 286 286 286 287
310 311 308 304 302 300 299 299 299 299 296 293 290 288 288 290 293 297 299 301 301 302 304 305 307 309 309 306 304 302 299 294 292 290 289 289 291 292 294 295 294 294 293 292 291 290 290 289 288 288 287 287 286 287 287 286 286 285 285 284 283 283 284 285 283 281 281 282 283 284 284 283 284 284 284 285 285 285 285 286 286 287 287 287 287
307 308 306 303 301 300 298 298 296 295 296 295 291 288 287 290 294 297 300 302 303 302 302 303 305 307 308 307 306 304 303 299 295 292 290 289 290 291 293 294 294 294 294 292 291 290 289 288 288 287 287 286 285 285 285 285 285 285 285 285 285 285 285 285 285 284 284 284 283 284 284 283 283 284 284 285 286 286 286 287 287 287 288 288 288
304 305 305 304 303 303 302 302 300 298 297 297 295 291 288 289 292 297 300 302 303 303 302 302 304 306 307 307 305 304 302 300 298 296 294 292 291 291 292 293 294 294 293 292 291 291 290 289 288 287 286 285 284 284 284 284 284 284 284 284 284 285 286 286 285 285 285 285 284 284 284 284 284 283 283 283 284 285 285 286 286 286 287 288 289
302 303 303 304 304 304 304 303 302 299 298 298 298 295 291 289 292 296 300 302 304 303 301 300 301 303 304 304 304 302 300 299 298 297 296 294 293 292 291 292 293 293 291 291 290 290 290 290 289 288 287 286 285 285 284 284 284 283 283 283 284 284 285 285 285 284 284 284 284 284 284 284 284 283 283 283 283 283 284 285 285 286 287 288 288
299 300 301 302 303 304 304 301 298 295 293 295 297 295 291 290 295 299 303 305 304 303 302 301 301 301 301 301 300 299 297 297 297 296 296 294 293 292 292 292 291 291 290 289 288 288 289 288 288 288 288 287 287 286 286 285 285 284 284 283 283 283 283 283 282 282 282 283 283 284 284 284 284 284 284 284 284 285 285 285 286 286 287 288 288
297 298 298 300 301 303 303 301 297 293 290 292 294 292 288 290 298 304 307 307 306 305 304 303 303 302 301 300 299 297 297 296 296 296 295 294 293 292 293 293 291 290 288 288 287 287 287 287 287 288 288 287 287 286 286 286 286 286 286 286 285 285 284 284 283 283 283 283 284 284 284 285 285 285 285 286 286 286 286 287 287 288 288 288 288
296 296 297 299 301 304 306 305 300 294 290 290 293 291 288 291 301 307 308 308 308 307 306 305 304 302 301 300 299 298 297 297 296 295 294 293 293 294 294 294 293 291 289 288 288 288 289 289 288 287 286 285 285 286 286 286 286 286 286 286 286 286 286 286 286 286 285 285 285 286 286 287 287 287 287 288 287 287 287 287 287 288 288 288 288
294 295 296 298 301 306 310 311 308 302 296 294 294 292 291 295 302 305 305 306 306 306 305 305 304 303 301 300 298 297 296 296 295 294 293 293 293 293 293 294 293 292 291 290 289 289 289 289 288 287 285 284 285 285 285 285 286 286 287 288 288 288 286 286 287 288 288 288 287 287 287 288 289 289 289 289 289 290 290 289 288 288 289 289 289
293 293 294 296 299 304 308 309 308 304 301 298 297 296 296 298 301 302 303 303 304 304 304 304 303 302 301 299 298 296 296 295 294 293 293 293 292 292 292 293 293 292 292 291 291 290 289 289 289 289 288 287 286 286 286 287 288 289 290 290 290 289 287 286 287 289 289 289 289 289 287 287 287 288 287 288 288 288 289 289 289 288 288 287 288
292 292 293 294 297 301 303 304 303 302 300 299 298 298 297 298 299 301 302 302 302 302 302 302 302 301 299 298 298 297 296 296 295 294 293 292 292 292 292 293 292 292 291 291 290 291 291 292 292 291 290 290 290 290 290 290 290 290 290 290 289 288 288 289 289 288 287 287 288 288 288 287 286 284 284 284 285 286 287 287 287 288 287 287 286
290 292 292 294 296 299 300 301 301 300 299 299 298 298 298 298 299 300 300 300 300 300 300 301 301 300 299 298 298 297 296 295 295 294 293 293 293 293 293 293 293 293 293 292 292 293 293 293 293 292 291 291 291 291 291 290 290 289 289 289 289 289 289 289 289 289 287 286 285 285 285 285 285 284 283 283 284 284 285 286 286 287 287 287 287
288 290 291 294 297 298 299 299 298 298 299 299 299 298 298 299 299 298 298 298 298 298 299 299 300 299 298 298 297 296 296 296 295 294 294 294 294 294 293 293 292 293 293 293 293 293 292 292 291 290 290 290 290 290 289 289 289 288 288 288 287 287 287 287 287 287 287 287 286 285 284 283 284 284 284 283 283 283 284 284 284 284 284 284 285
286 288 290 293 296 298 298 298 298 298 298 299 298 298 298 297 297 298 298 298 298 297 298 298 298 297 297 297 296 296 296 296 295 295 295 295 294 294 293 292 292 291 291 291 291 291 291 290 290 289 289 289 288 288 288 287 287 287 287 286 286 286 286 286 286 286 286 286 286 286 285 284 283 283 283 284 284 284 283 282 282 282 282 282 283
285 285 287 291 296 298 298 298 297 297 298 298 298 297 297 297 297 297 297 297 297 297 297 297 296 295 295 296 296 296 296 296 296 296 295 295 295 294 294 293 292 291 291 290 290 290 290 290 290 290 289 289 288 288 287 287 287 287 286 286 286 285 285 286 285 285 285 285 285 284 284 284 284 283 282 282 283 283 283 282 282 281 281 280 280
285 285 286 290 294 296 297 297 296 297 297 297 297 297 297 297 298 298 297 297 297 296 296 296 295 295 295 295 295 295 295 295 295 294 294 294 294 293 292 292 291 292 292 291 291 290 290 290 290 290 289 289 288 288 288 287 287 287 286 286 286 286 285 285 284 284 284 284 283 283 282 282 282 282 282 281 281 281 281 281 281 280 280 280 280
287 288 290 292 294 295 295 295 295 296 296 296 296 297 298 298 298 298 298 297 297 296 296 296 296 296 296 295 295 294 294 293 293 293 293 293 292 292 292 292 292 292 292 292 292 291 291 291 290 290 290 289 289 289 289 288 288 287 286 286 285 285 284 284 283 283 282 282 282 281 281 280 280 281 281 281 281 280 280 279 280 280 280 280 280
290 290 291 292 293 294 294 294 294 295 295 296 297 297 297 297 298 298 299 299 298 297 297 296 296 296 295 295 294 293 293 293 293 293 293 293 293 293 293 293 293 293 292 292 293 293 292 292 292 292 292 291 290 290 290 289 287 286 286 285 284 284 283 283 282 282 282 281 281 280 280 280 280 280 280 280 280 279 279 279 279 279 279 279 279
289 290 291 292 293 294 294 294 294 295 296 297 298 298 298 297 297 298 298 297 297 297 297 297 296 296 296 295 295 295 295 295 295 295 295 295 295 295 294 294 294 294 294 294 293 293 293 292 292 292 292 291 290 290 289 288 287 287 286 285 285 284 284 283 283 282 282 282 282 281 281 280 280 280 279 279 279 279 279 279 279 279 279 278 278
289 290 292 293 294 294 293 294 295 296 297 297 298 298 297 297 297 297 296 295 295 296 296 296 296 297 297 297 297 297 297 297 297 297 297 297 297 297 296 296 295 295 294 294 293 293 292 292 292 292 292 291 290 290 289 288 288 288 288 287 287 287 286 286 286 285 285 285 284 284 284 283 282 282 281 280 280 279 279 279 279 279 279 278 277
291 292 293 294 295 295 295 296 296 296 297 297 297 297 297 297 298 298 298 297 298 297 297 297 298 298 298 299 299 299 299 298 298 297 297 297 296 296 295 295 294 294 293 293 293 292 292 291 291 291 292 292 291 291 290 290 290 290 290 289 289 289 289 289 289 289 288 288 287 287 286 286 285 284 283 282 281 280 279 278 278 278 278 277 276
294 295 295 296 296 297 297 297 298 298 298 299 299 299 299 299 299 299 299 299 300 300 299 299 299 298 298 298 298 298 297 297 296 295 295 295 294 294 293 293 293 292 292 292 292 291 291 291 291 292 292 292 292 292 292 292 292 291 291 291 290 290 290 290 289 289 289 288 288 287 286 285 284 283 282 281 280 278 277 277 276 275 275 275 274
296 296 297 297 297 298 298 298 299 299 300 300 301 301 301 301 300 300 300 300 299 299 299 298 298 297 297 296 296 296 296 295 295 294 294 293 293 293 292 292 292 292 292 292 292 292 292 292 292 292 292 293 293 293 293 293 292 292 291 291 290 290 289 289 289 289 288 288 288 288 287 285 284 283 281 280 279 277 276 275 274 273 273 272 272
Height
5907 5907 5908 5909 5910 5911 5910 5909 5908 5908 5908 5909 5909 5910 5909 5909 5909 5910 5910 5910 5910 5910 5910 5910 5911 5911 5911 5912 5912 5912 5913 5913 5913 5913 5914 5914 5915 5915 5916 5916 5917 5918 5918 5919 5920 5920 5921 5922 5923 5923 5924 5924 5924 5924 5925 5925 5925 5925 5925 5924 5924 5923 5922 5923 5924 5924 5923 5922 5922 5922 5923 5923 5922 5920 5920 5921 5920 5919 5919 5919 5919 5917 5916 5914 5913
5904 5905 5906 5907 5908 5908 5907 5907 5906 5905 5905 5906 5907 5907 5906 5906 5907 5908 5908 5908 5908 5907 5908 5908 5908 5908 5908 5909 5909 5910 5910 5911 5911 5911 5912 5912 5912 5913 5913 5914 5915 5915 5916 5916 5917 5918 5918 5919 5920 5920 5921 5921 5921 5922 5922 5922 5922 5922 5921 5921 5921 5920 5919 5920 5922 5923 5922 5920 5920 5919 5919 5919 5919 5918 5917 5917 5918 5917 5916 5916 5915 5914 5913 5912 5910
5902 5903 5905 5905 5904 5904 5904 5903 5902 5902 5902 5903 5903 5903 5903 5903 5904 5905 5905 5905 5905 5904 5905 5905 5905 5905 5906 5906 5906 5907 5908 5908 5909 5909 5910 5910 5910 5911 5911 5911 5912 5913 5913 5914 5914 5914 5915 5916 5917 5917 5917 5918 5918 5918 5918 5918 5918 5918 5918 5918 5917 5917 5916 5917 5919 5920 5920 5919 5918 5917 5916 5915 5915 5915 5915 5914 5914 5914 5914 5913 5911 5910 5909 5908 5907
5900 5901 5901 5901 5901 5900 5900 5899 5899 5898 5898 5899 5899 5899 5900 5901 5901 5901 5901 5901 5901 5902 5902 5903 5902 5903 5903 5903 5904 5904 5905 5906 5907 5907 5908 5908 5908 5908 5908 5909 5909 5910 5910 5910 5910 5911 5911 5912 5913 5913 5914 5914 5914 5914 5915 5914 5914 5915 5915 5914 5914 5914 5913 5915 5916 5917 5917 5917 5916 5915 5914 5913 5911 5911 5911 5911 5909 5908 5908 5908 5907 5906 5905 5904 5904
5897 5897 5896 5895 5895 5895 5896 5896 5895 5894 5894 5896 5896 5896 5897 5898 5898 5898 5898 5898 5899 5899 5900 5901 5901 5901 5902 5901 5901 5902 5902 5903 5904 5905 5905 5905 5906 5906 5906 5907 5907 5907 5908 5908 5908 5908 5908 5909 5909 5909 5910 5910 5911 5911 5911 5911 5911 5911 5911 5911 5911 5911 5910 5911 5913 5913 5913 5914 5913 5912 5910 5909 5908 5906 5906 5907 5906 5904 5903 5903 5903 5903 5902 5900 5900
5893 5892 5891 5889 5889 5890 5892 5893 5893 5893 5894 5895 5894 5894 5895 5895 5895 5895 5896 5896 5897 5897 5898 5898 5898 5899 5899 5900 5899 5900 5900 5901 5902 5902 5902 5902 5903 5903 5904 5904 5904 5905 5905 5905 5905 5905 5906 5907 5906 5906 5907 5907 5907 5908 5908 5908 5908 5908 5908 5907 5908 5908 5907 5907 5908 5908 5908 5909 5909 5908 5906 5905 5904 5903 5901 5900 5901 5901 5899 5900 5901 5899 5897 5896 5895
5889 5889 5889 5888 5888 5889 5891 5892 5893 5893 5894 5894 5894 5894 5894 5893 5893 5893 5893 5894 5894 5895 5895 5895 5895 5896 5896 5896 5897 5897 5897 5898 5898 5899 5899 5899 5899 5900 5901 5901 5902 5902 5902 5902 5901 5901 5902 5904 5904 5904 5904 5904 5905 5905 5905 5905 5905 5905 5905 5905 5905 5904 5904 5904 5904 5903 5903 5904 5904 5904 5902 5901 5900 5899 5896 5895 5895 5895 5894 5894 5896 5895 5893 5892 5891
5888 5889 5890 5889 5889 5889 5890 5890 5891 5892 5892 5891 5891 5892 5892 5891 5890 5891 5891 5892 5892 5892 5892 5893 5893 5893 5893 5893 5893 5894 5894 5895 5895 5895 5895 5895 5896 5897 5897 5898 5898 5898 5899 5899 5899 5899 5899 5899 5900 5901 5901 5902 5901 5901 5901 5901 5902 5901 5901 5901 5901 5901 5900 5900 5900 5900 5899 5899 5900 5900 5899 5898 5897 5896 5893 5891 5890 5889 5888 5889 5890 5890 5889 5890 5889
5890 5890 5891 5890 5888 5888 5888 5887 5888 5888 5888 5887 5886 5887 5887 5887 5887 5888 5889 5889 5890 5890 5891 5891 5891 5891 5891 5891 5891 5891 5891 5892 5892 5892 5892 5892 5892 5893 5893 5893 5894 5895 5895 5896 5897 5896 5896 5896 5896 5897 5898 5899 5898 5897 5897 5897 5898 5898 5898 5897 5897 5897 5896 5896 5896 5896 5896 5896 5896 5896 5895 5895 5894 5892 5890 5888 5886 5885 5884 5885 5886 5887 5887 5887 5887
5890 5890 5890 5889 5888 5887 5886 5886 5887 5886 5886 5886 5884 5883 5884 5884 5884 5885 5886 5886 5887 5887 5888 5888 5888 5889 5888 5888 5888 5888 5888 5889 5889 5889 5890 5890 5890 5890 5890 5890 5891 5892 5892 5892 5892 5892 5893 5893 5893 5894 5894 5895 5894 5894 5894 5894 5894 5895 5895 5894 5893 5893 5893 5892 5892 5892 5892 5892 5892 5891 5891 5891 5890 5887 5886 5884 5882 5881 5881 5882 5884 5884 5883 5884 5884
5888 5887 5888 5888 5887 5887 5886 5885 5885 5885 5884 5884 5883 5882 5882 5882 5883 5883 5884 5884 5884 5884 5884 5884 5884 5884 5884 5884 5883 5884 5885 5886 5887 5887 5888 5889 5889 5888 5888 5888 5888 5889 5889 5889 5889 5888 5889 5889 5889 5890 5890 5891 5891 5891 5892 5891 5891 5891 5891 5890 5890 5889 5889 5889 5888 5888 5888 5888 5888 5887 5887 5887 5885 5883 5881 5880 5880 5880 5879 5879 5879 5878 5877 5878 5878
5885 5885 5886 5886 5886 5886 5885 5884 5884 5884 5883 5882 5882 5881 5880 5881 5881 5881 5882 5882 5882 5882 5882 5882 5882 5881 5881 5880 5880 5881 5883 5884 5884 5885 5885 5886 5886 5885 5885 5885 5885 5885 5885 5886 5886 5885 5885 5885 5885 5886 5888 5888 5887 5887 5888 5887 5887 5887 5887 5887 5886 5886 5885 5885 5885 5885 5884 5884 5884 5884 5882 5882 5881 5879 5875 5875 5877 5879 5877 5874 5871 5871 5871 5871 5870
5884 5884 5884 5885 5885 5885 5884 5883 5883 5883 5882 5881 5880 5880 5880 5880 5880 5880 5881 5881 5880 5880 5880 5880 5880 5879 5879 5879 5879 5880 5881 5882 5881 5881 5882 5882 5882 5882 5882 5881 5882 5882 5882 5882 5883 5883 5882 5882 5883 5884 5884 5884 5883 5884 5884 5884 5884 5883 5882 5883 5883 5882 5881 5881 5881 5881 5881 5880 5880 5880 5878 5876 5876 5873 5870 5871 5875 5876 5873 5869 5866 5866 5866 5865 5865
5884 5883 5883 5884 5883 5883 5883 5882 5882 5881 5881 5880 5880 5880 5880 5880 5880 5880 5879 5879 5879 5879 5879 5879 5878 5879 5879 5879 5879 5879 5880 5880 5879 5879 5879 5879 5879 5879 5879 5879 5879 5880 5880 5880 5880 5880 5880 5880 5880 5880 5879 5878 5879 5879 5880 5880 5879 5878 5878 5879 5879 5878 5877 5877 5876 5876 5876 5876 5876 5875 5874 5872 5871 5869 5868 5870 5870 5870 5869 5867 5863 5862 5861 5860 5861
5883 5883 5883 5882 5882 5881 5881 5880 5880 5880 5879 5879 5879 5879 5879 5879 5879 5878 5878 5878 5878 5877 5877 5877 5877 5878 5878 5878 5878 5878 5878 5878 5879 5879 5878 5877 5877 5877 5877 5878 5878 5878 5878 5878 5879 5878 5877 5877 5877 5876 5875 5875 5875 5876 5876 5876 5875 5875 5874 5875 5876 5875 5873 5873 5872 5872 5871 5870 5870 5869 5869 5868 5867 5866 5865 5865 5864 5863 5863 5863 5861 5859 5857 5857 5857
5882 5882 5882 5881 5880 5879 5879 5878 5878 5878 5878 5878 5878 5878 5878 5878 5878 5877 5877 5877 5876 5876 5876 5876 5876 5877 5877 5877 5878 5877 5876 5877 5878 5878 5877 5876 5876 5876 5876 5876 5876 5876 5876 5877 5878 5877 5875 5874 5873 5872 5872 5872 5873 5872 5872 5873 5872 5872 5872 5872 5872 5870 5869 5869 5869 5868 5867 5866 5865 5865 5865 5864 5863 5862 5861 5859 5859 5858 5857 5857 5857 5856 5855 5854 5853
5881 5881 5880 5880 5879 5879 5878 5877 5877 5877 5878 5878 5877 5877 5877 5877 5877 5877 5876 5876 5876 5875 5875 5875 5876 5876 5876 5876 5876 5876 5876 5876 5876 5876 5875 5875 5874 5874 5875 5875 5874 5874 5874 5875 5876 5875 5875 5873 5872 5870 5870 5870 5870 5870 5870 5870 5870 5870 5869 5869 5868 5867 5866 5866 5866 5865 5864 5864 5863 5862 5862 5861 5860 5859 5857 5854 5854 5853 5852 5851 5852 5852 5852 5851 5849
5880 5879 5879 5879 5879 5879 5878 5878 5877 5877 5877 5878 5878 5877 5877 5877 5877 5877 5876 5876 5875 5874 5874 5874 5875 5876 5876 5876 5876 5876 5876 5876 5875 5874 5874 5873 5873 5873 5873 5873 5872 5872 5872 5872 5873 5873 5873 5873 5872 5870 5869 5868 5868 5868 5868 5867 5867 5867 5866 5866 5865 5864 5864 5863 5863 5862 5861 5861 5860 5858 5858 5857 5856 5855 5853 5851 5850 5849 5847 5846 5847 5847 5848 5848 5847
5880 5879 5878 5878 5878 5878 5878 5878 5877 5877 5877 5877 5877 5877 5877 5877 5876 5876 5875 5875 5874 5873 5872 5873 5874 5875 5876 5876 5875 5875 5875 5874 5873 5873 5872 5872 5871 5871 5871 5871 5870 5869 5869 5869 5869 5870 5870 5870 5869 5868 5868 5867 5866 5865 5865 5864 5864 5863 5863 5863 5863 5862 5861 5860 5859 5859 5858 5857 5856 5855 5854 5853 5852 5850 5849 5848 5847 5846 5844 5843 5842 5843 5843 5843 5843
5880 5879 5878 5878 5877 5877 5877 5877 5877 5877 5877 5877 5877 5877 5876 5876 5876 5875 5875 5874 5873 5872 5871 5871 5872 5874 5875 5875 5875 5874 5873 5872 5871 5871 5871 5870 5869 5869 5869 5868 5867 5867 5866 5866 5866 5866 5866 5865 5865 5864 5864 5863 5862 5861 5861 5860 5860 5860 5860 5860 5859 5859 5858 5857 5856 5855 5855 5854 5853 5852 5850 5849 5848 5847 5846 5845 5844 5843 5842 5840 5839 5839 5838 5838 5837
5879 5878 5878 5877 5877 5877 5877 5877 5877 5877 5877 5876 5876 5876 5876 5876 5875 5875 5875 5874 5873 5872 5871 5870 5869 5870 5872 5873 5873 5872 5870 5869 5869 5869 5869 5868 5867 5867 5866 5865 5864 5864 5863 5863 5863 5863 5863 5862 5861 5860 5860 5860 5859 5858 5858 5857 5857 5857 5857 5857 5856 5856 5855 5854 5853 5852 5852 5851 5850 5848 5847 5846 5844 5843 5842 5841 5840 5839 5839 5838 5836 5835 5834 5833 5832
5878 5878 5878 5878 5878 5877 5877 5877 5877 5877 5876 5876 5875 5875 5875 5874 5874 5874 5874 5873 5873 5872 5871 5869 5868 5868 5868 5868 5869 5868 5868 5867 5867 5867 5866 5866 5865 5864 5864 5863 5862 5861 5860 5860 5860 5860 5860 5859 5858 5857 5857 5857 5856 5856 5855 5855 5855 5854 5854 5854 5853 5853 5852 5851 5850 5849 5848 5847 5846 5844 5843 5842 5841 5839 5838 5837 5835 5834 5833 5832 5831 5830 5829 5828 5827
5877 5878 5878 5878 5877 5877 5877 5877 5877 5876 5876 5875 5875 5874 5874 5874 5873 5873 5872 5872 5871 5870 5869 5869 5868 5867 5866 5865 5865 5865 5864 5864 5864 5864 5863 5863 5863 5862 5861 5861 5860 5859 5858 5857 5857 5856 5856 5856 5855 5854 5854 5854 5853 5853 5853 5852 5852 5851 5850 5850 5849 5849 5848 5847 5846 5845 5844 5842 5841 5840 5839 5838 5837 5836 5834 5833 5831 5830 5829 5827 5826 5825 5824 5824 5823
5876 5876 5876 5876 5876 5876 5876 5876 5876 5875 5875 5874 5874 5873 5873 5873 5872 5871 5871 5870 5870 5869 5868 5867 5866 5866 5865 5864 5863 5863 5862 5861 5861 5861 5861 5860 5860 5859 5859 5858 5857 5857 5856 5855 5854 5853 5852 5852 5852 5852 5851 5850 5850 5850 5849 5849 5848 5847 5846 5846 5845 5844 5843 5843 5842 5841 5840 5838 5837 5836 5835 5834 5833 5832 5831 5829 5828 5826 5825 5823 5822 5821 5820 5819 5818
5874 5874 5874 5874 5875 5875 5875 5874 5874 5874 5874 5874 5873 5873 5872 5872 5871 5870 5869 5869 5868 5868 5867 5866 5865 5864 5863 5862 5861 5861 5860 5859 5858 5858 5858 5857 5856 5856 5855 5854 5853 5853 5852 5851 5850 5849 5849 5848 5848 5847 5847 5846 5846 5846 5845 5844 5843 5842 5842 5842 5841 5840 5839 5839 5838 5837 5836 5834 5833 5832 5831 5830 5829 5828 5826 5825 5824 5822 5821 5820 5818 5817 5816 5814 5813
5873 5873 5872 5872 5873 5873 5873 5872 5872 5872 5872 5872 5872 5872 5871 5871 5870 5869 5868 5868 5867 5866 5866 5865 5864 5863 5862 5861 5860 5859 5859 5858 5856 5855 5855 5854 5853 5853 5852 5851 5850 5849 5848 5848 5847 5846 5845 5844 5843 5842 5842 5841 5841 5841 5840 5839 5838 5838 5838 5838 5837 5836 5835 5834 5834 5833 5831 5830 5829 5828 5826 5825 5824 5823 5822 5821 5819 5818 5817 5816 5814 5813 5811 5810 5808
5873 5872 5871 5871 5872 5871 5871 5871 5871 5870 5870 5869 5869 5869 5869 5869 5868 5867 5867 5866 5866 5865 5864 5863 5863 5862 5861 5860 5859 5858 5858 5857 5855 5854 5853 5852 5851 5851 5850 5849 5848 5847 5846 5845 5844 5842 5841 5840 5839 5838 5838 5837 5836 5836 5835 5834 5834 5834 5833 5832 5831 5831 5829 5829 5829 5828 5825 5824 5824 5823 5822 5820 5819 5818 5817 5816 5814 5814 5813 5811 5810 5808 5807 5805 5804
5871 5871 5871 5870 5870 5869 5869 5869 5869 5868 5867 5867 5867 5867 5867 5866 5866 5865 5864 5864 5863 5862 5862 5861 5860 5859 5859 5857 5856 5856 5856 5855 5854 5853 5852 5851 5850 5849 5848 5847 5845 5844 5843 5841 5840 5839 5838 5836 5835 5834 5833 5832 5831 5830 5830 5829 5828 5828 5827 5826 5825 5824 5823 5823 5824 5822 5819 5818 5818 5818 5817 5816 5814 5813 5812 5810 5809 5808 5807 5806 5805 5803 5802 5800 5799
5869 5869 5869 5868 5867 5866 5866 5866 5866 5866 5865 5865 5865 5865 5864 5864 5863 5862 5861 5861 5859 5859 5858 5857 5856 5856 5855 5854 5853 5853 5853 5852 5851 5850 5849 5848 5847 5846 5845 5844 5842 5840 5839 5837 5836 5835 5834 5832 5831 5830 5829 5828 5826 5825 5824 5824 5823 5823 5822 5820 5819 5818 5817 5818 5819 5817 5813 5812 5812 5812 5812 5810 5809 5807 5806 5805 5803 5802 5801 5800 5799 5797 5796 5794 5793
5867 5867 5866 5865 5864 5864 5863 5863 5862 5862 5862 5861 5860 5860 5859 5859 5859 5858 5857 5857 5856 5855 5854 5853 5852 5852 5852 5850 5849 5849 5848 5847 5846 5845 5844 5844 5843 5842 5841 5839 5838 5837 5835 5833 5832 5830 5829 5828 5827 5825 5824 5823 5822 5820 5819 5818 5818 5817 5816 5814 5813 5812 5812 5813 5812 5811 5809 5808 5807 5806 5805 5804 5803 5802 5800 5799 5798 5796 5795 5794 5793 5791 5789 5788 5787
5865 5864 5864 5862 5861 5860 5860 5860 5859 5859 5859 5858 5857 5856 5855 5854 5854 5853 5852 5852 5851 5850 5850 5849 5848 5848 5847 5846 5845 5844 5843 5842 5842 5841 5839 5839 5838 5837 5836 5835 5834 5832 5831 5829 5827 5826 5824 5823 5822 5821 5819 5818 5817 5816 5814 5813 5812 5812 5811 5809 5807 5806 5807 5808 5806 5804 5803 5803 5801 5800 5799 5798 5797 5796 5795 5794 5792 5790 5789 5788 5787 5786 5784 5782 5781
5861 5860 5859 5858 5857 5855 5855 5855 5855 5854 5854 5853 5853 5852 5851 5851 5850 5849 5848 5847 5847 5846 5845 5845 5844 5843 5842 5842 5840 5839 5839 5837 5836 5835 5834 5833 5832 5832 5831 5830 5829 5827 5826 5824 5822 5821 5819 5818 5817 5815 5814 5813 5812 5811 5810 5808 5807 5807 5806 5805 5803 5801 5801 5801 5800 5798 5797 5796 5794 5794 5793 5792 5791 5790 5789 5788 5787 5785 5783 5782 5781 5780 5779 5777 5776
5858 5857 5856 5854 5853 5852 5851 5850 5849 5849 5849 5848 5848 5848 5847 5847 5846 5846 5845 5843 5843 5842 5841 5841 5840 5839 5838 5837 5836 5835 5834 5833 5831 5830 5829 5828 5827 5826 5825 5825 5824 5822 5821 5819 5818 5816 5815 5814 5812 5811 5810 5808 5807 5806 5805 5804 5803 5802 5801 5800 5798 5796 5795 5795 5794 5793 5791 5789 5788 5788 5787 5786 5785 5783 5782 5781 5781 5779 5778 5776 5775 5774 5773 5772 5771
5855 5854 5853 5851 5850 5849 5848 5846 5845 5845 5844 5844 5844 5843 5843 5842 5842 5842 5841 5840 5840 5839 5838 5837 5836 5835 5833 5832 5831 5830 5829 5828 5827 5826 5824 5823 5822 5821 5820 5820 5819 5818 5816 5815 5813 5812 5810 5809 5808 5806 5805 5804 5803 5801 5800 5799 5798 5797 5796 5795 5793 5792 5790 5790 5789 5788 5786 5784 5782 5782 5781 5780 5778 5777 5776 5775 5774 5773 5772 5770 5769 5768 5768 5767 5765
5852 5851 5850 5849 5847 5846 5845 5843 5841 5841 5841 5840 5840 5839 5839 5838 5837 5837 5836 5835 5835 5835 5834 5832 5831 5830 5829 5828 5827 5825 5824 5823 5822 5821 5820 5818 5817 5816 5815 5815 5814 5813 5811 5810 5809 5807 5806 5805 5803 5802 5801 5799 5798 5797 5795 5794 5793 5792 5791 5790 5788 5787 5785 5784 5783 5783 5782 5779 5778 5776 5775 5774 5772 5771 5770 5769 5768 5767 5766 5765 5764 5762 5761 5760 5760
5849 5848 5847 5845 5844 5843 5841 5840 5838 5837 5837 5837 5837 5836 5836 5835 5834 5833 5831 5830 5830 5830 5829 5828 5826 5825 5824 5823 5822 5821 5820 5819 5818 5817 5815 5814 5812 5811 5810 5809 5808 5807 5806 5805 5803 5802 5801 5800 5798 5797 5796 5794 5793 5792 5791 5790 5788 5787 5786 5785 5783 5782 5780 5778 5777 5777 5776 5774 5773 5771 5770 5768 5767 5765 5764 5763 5761 5760 5760 5759 5758 5757 5755 5754 5753
5846 5845 5843 5842 5841 5839 5838 5836 5835 5835 5834 5834 5834 5833 5833 5832 5830 5829 5828 5827 5826 5825 5824 5823 5822 5820 5819 5818 5817 5816 5815 5814 5813 5812 5811 5809 5807 5806 5805 5803 5802 5801 5800 5799 5798 5797 5796 5794 5793 5792 5790 5789 5788 5787 5785 5784 5783 5782 5780 5779 5777 5776 5775 5773 5772 5771 5770 5768 5767 5766 5764 5763 5761 5760 5758 5757 5756 5754 5754 5753 5752 5751 5750 5748 5747
5842 5841 5840 5838 5837 5836 5834 5833 5833 5832 5832 5831 5830 5830 5829 5828 5826 5825 5824 5823 5822 5821 5820 5819 5817 5816 5815 5813 5812 5811 5810 5810 5809 5807 5806 5804 5802 5801 5800 5798 5797 5796 5795 5794 5792 5791 5791 5790 5788 5787 5785 5784 5783 5782 5780 5779 5778 5776 5774 5773 5771 5770 5768 5767 5767 5766 5764 5763 5761 5760 5759 5758 5757 5755 5753 5752 5751 5750 5748 5747 5746 5745 5744 5743 5741
5839 5838 5836 5835 5834 5833 5832 5831 5830 5829 5828 5828 5827 5826 5825 5824 5822 5821 5820 5819 5817 5816 5815 5814 5813 5811 5810 5809 5808 5807 5806 5805 5804 5802 5801 5800 5798 5796 5795 5794 5792 5791 5790 5788 5787 5786 5785 5785 5783 5781 5780 5779 5778 5776 5775 5774 5772 5771 5769 5768 5766 5764 5763 5762 5761 5760 5759 5757 5756 5754 5753 5752 5751 5750 5748 5747 5746 5744 5743 5741 5740 5739 5738 5737 5736
5836 5834 5833 5832 5831 5830 5829 5828 5827 5826 5825 5824 5823 5822 5821 5820 5819 5817 5816 5815 5813 5812 5811 5810 5808 5806 5805 5804 5803 5802 5801 5800 5799 5798 5796 5795 5794 5792 5791 5789 5788 5786 5785 5783 5782 5781 5780 5779 5778 5776 5775 5773 5772 5771 5769 5768 5767 5765 5764 5762 5760 5758 5757 5756 5754 5753 5752 5751 5750 5749 5747 5746 5744 5743 5742 5741 5740 5738 5737 5735 5734 5733 5731 5730 5729
5832 5831 5830 5829 5828 5826 5825 5824 5824 5823 5822 5821 5820 5818 5817 5816 5814 5813 5812 5810 5809 5807 5806 5806 5804 5802 5800 5800 5799 5798 5797 5796 5794 5793 5792 5791 5790 5788 5787 5785 5784 5782 5780 5778 5777 5776 5775 5774 5772 5771 5769 5768 5766 5765 5763 5762 5760 5759 5757 5756 5754 5752 5751 5750 5748 5747 5745 5744 5743 5742 5741 5740 5738 5736 5735 5734 5733 5732 5731 5729 5728 5727 5726 5725 5723
5829 5828 5827 5825 5824 5823 5822 5821 5820 5819 5818 5817 5816 5814 5813 5811 5810 5809 5807 5806 5804 5803 5802 5801 5800 5799 5797 5795 5794 5793 5792 5791 5790 5788 5787 5786 5784 5783 5782 5780 5779 5777 5776 5774 5772 5770 5769 5768 5766 5765 5763 5762 5760 5759 5757 5755 5754 5752 5751 5749 5748 5746 5744 5743 5741 5740 5739 5737 5735 5734 5733 5732 5731 5730 5728 5726 5725 5725 5724 5723 5722 5721 5719 5718 5717
5824 5824 5823 5822 5820 5819 5818 5817 5816 5814 5814 5812 5811 5810 5808 5807 5806 5804 5803 5801 5800 5799 5798 5797 5796 5795 5793 5791 5789 5788 5787 5786 5784 5783 5782 5780 5779 5778 5776 5774 5773 5771 5770 5768 5766 5765 5763 5762 5760 5758 5757 5755 5753 5752 5750 5748 5747 5745 5743 5742 5740 5739 5737 5736 5734 5733 5732 5730 5729 5727 5725 5724 5723 5722 5721 5720 5718 5717 5716 5715 5714 5714 5713 5712 5711
5820 5819 5818 5817 5816 5815 5813 5812 5811 5810 5809 5808 5806 5805 5803 5802 5801 5799 5798 5797 5795 5794 5793 5792 5790 5790 5788 5787 5785 5783 5782 5780 5779 5778 5776 5775 5774 5772 5770 5768 5766 5765 5763 5762 5760 5758 5756 5755 5753 5751 5750 5748 5746 5744 5743 5741 5740 5738 5736 5734 5733 5731 5730 5728 5727 5725 5724 5723 5721 5720 5719 5717 5715 5714 5713 5713 5711 5710 5709 5708 5707 5706 5705 5705 5704
5816 5815 5814 5813 5812 5810 5809 5807 5806 5805 5804 5803 5802 5800 5799 5797 5796 5794 5793 5792 5791 5790 5788 5787 5786 5784 5783 5782 5780 5779 5777 5775 5774 5772 5771 5770 5768 5766 5764 5762 5760 5758 5757 5755 5753 5751 5749 5747 5746 5744 5742 5740 5737 5736 5735 5734 5732 5730 5728 5727 5725 5724 5722 5720 5719 5718 5716 5715 5714 5712 5711 5710 5708 5707 5706 5705 5704 5702 5701 5701 5700 5698 5698 5698 5697
5811 5810 5809 5808 5807 5806 5804 5803 5802 5800 5799 5798 5797 5796 5794 5793 5791 5790 5789 5787 5786 5785 5784 5782 5781 5780 5778 5777 5775 5773 5772 5770 5768 5767 5765 5763 5761 5759 5757 5755 5753 5751 5749 5748 5745 5743 5741 5739 5738 5737 5734 5731 5729 5729 5728 5726 5723 5722 5721 5719 5717 5716 5714 5713 5711 5710 5708 5707 5706 5705 5703 5702 5701 5699 5698 5697 5696 5694 5693 5693 5693 5691 5690 5690 5690
5806 5805 5804 5804 5803 5802 5800 5798 5797 5796 5794 5793 5792 5791 5790 5789 5788 5786 5785 5783 5782 5780 5779 5777 5776 5774 5773 5771 5769 5767 5765 5764 5762 5760 5758 5756 5754 5752 5750 5749 5746 5744 5742 5740 5738 5736 5734 5731 5729 5729 5727 5723 5720 5721 5720 5717 5714 5714 5712 5710 5709 5707 5706 5704 5703 5702 5700 5699 5698 5696 5695 5694 5692 5691 5690 5689 5688 5687 5685 5685 5685 5684 5683 5682 5682
5802 5801 5800 5799 5799 5798 5796 5794 5793 5791 5790 5789 5788 5787 5785 5784 5783 5782 5780 5779 5778 5776 5774 5772 5770 5769 5767 5765 5763 5760 5758 5756 5754 5753 5751 5749 5747 5744 5742 5741 5739 5736 5734 5733 5731 5728 5726 5723 5721 5721 5719 5715 5712 5711 5711 5708 5706 5705 5703 5701 5700 5698 5697 5695 5694 5693 5691 5690 5689 5688 5686 5685 5683 5682 5681 5680 5679 5678 5677 5676 5676 5675 5674 5674 5674
5798 5797 5796 5795 5794 5793 5792 5790 5789 5787 5786 5785 5784 5782 5781 5779 5778 5776 5775 5773 5772 5771 5769 5767 5765 5763 5761 5759 5756 5754 5751 5749 5747 5745 5744 5742 5740 5737 5735 5733 5731 5728 5726 5725 5722 5720 5718 5715 5713 5713 5712 5707 5703 5701 5701 5699 5697 5696 5694 5692 5691 5689 5687 5686 5685 5683 5682 5680 5679 5678 5677 5675 5674 5672 5671 5670 5669 5668 5668 5668 5667 5666 5666 5665 5665
5793 5792 5791 5790 5789 5788 5787 5786 5784 5783 5781 5780 5779 5777 5776 5774 5772 5771 5769 5767 5766 5764 5762 5760 5758 5756 5754 5752 5750 5748 5745 5742 5740 5738 5737 5735 5732 5729 5727 5725 5723 5720 5718 5716 5714 5711 5709 5707 5705 5705 5704 5699 5694 5692 5692 5690 5688 5686 5685 5683 5681 5679 5678 5676 5675 5673 5672 5670 5669 5668 5666 5665 5664 5662 5661 5660 5659 5658 5657 5657 5657 5657 5656 5656 5655
5789 5788 5787 5786 5785 5784 5783 5781 5780 5778 5777 5775 5774 5772 5770 5769 5767 5765 5763 5762 5760 5758 5756 5754 5752 5749 5747 5745 5743 5741 5739 5736 5733 5731 5729 5727 5724 5721 5719 5717 5715 5712 5709 5707 5705 5702 5700 5697 5695 5695 5695 5691 5685 5683 5682 5681 5678 5677 5675 5673 5671 5670 5668 5667 5665 5664 5663 5661 5660 5659 5657 5656 5654 5653 5652 5651 5649 5648 5647 5647 5647 5647 5646 5645 5645